Paducah, KY

10:47 PM CST on November 19, 2017 (GMT -0600)
Barkley Regional

Weather History for KPAH - October, 2012

Change the Weather History Date:

Tuesday, October 23, 2012

  Actual Average Record
Temperature  
Mean Temperature 70 °F 57 °F  
Max Temperature 79 °F 69 °F 84 °F (2000)
Min Temperature 61 °F 45 °F 27 °F (1969)
Degree Days  
Heating Degree Days 0 9  
Month to date heating degree days 168 147  
Since 1 July heating degree days 208 186  
Cooling Degree Days 5 1  
Month to date cooling degree days 19 34  
Year to date cooling degree days 1971 1534  
Growing Degree Days 20 (Base 50)    
Moisture  
Dew Point 53 °F    
Average Humidity 60    
Maximum Humidity 72    
Minimum Humidity 47    
Precipitation  
Precipitation 0.00 in 0.13 in 1.74 in (2007)
Month to date precipitation 2.00 2.99  
Year to date precipitation 23.18 39.22  
Snow  
Snow 0.00 in 0.00 in 0.00 in (2002)
Month to date snowfall 0.0 0.0  
Since 1 July snowfall 0.0 0.0  
Since 1 September snowfall 0.0 0.0  
Snow Depth 0.00 in    
Sea Level Pressure  
Sea Level Pressure 30.01 in    
Wind  
Wind Speed 7 mph (SSW)    
Max Wind Speed 17 mph    
Max Gust Speed 25 mph    
Visibility 10 miles    
Events      
T = Trace of Precipitation, MM = Missing Value Source: NWS Daily Summary

Daily Weather History Graph

Daily Weather History Graph

Search for Another Location

Airport or City:

Trip Planner

Search our weather history database for the weather conditions in past years. The results will help you decide how hot, cold, wet, or windy it might be!

Date:

Astronomy

Oct. 23, 2012 Rise Set
Actual Time 7:10 AM CDT 6:07 PM CDT
Civil Twilight 6:44 AM CDT 6:33 PM CDT
Nautical Twilight 6:13 AM CDT 7:04 PM CDT
Astronomical Twilight 5:43 AM CDT 7:34 PM CDT
Moon 2:43 PM CDT (10/23) 1:10 AM CDT (10/23)
Length of Visible Light 11h 49m
Length of Day
10h 56m
Waxing Gibbous, 67% of the Moon is Illuminated
Oct 23
Waxing Gibbous
Oct 29
Full
Nov 6
Last Quarter
Nov 13
New
Nov 20
First Quarter

Hourly Weather History & Observations

Time (CDT) Temp. Dew Point Humidity Pressure Visibility Wind Dir Wind Speed Gust Speed Precip Events Conditions
12:53 AM 64.4 °F 50.0 °F 59% 30.00 in 10.0 mi SSW 5.8 mph - N/A   Clear
1:53 AM 62.6 °F 48.2 °F 59% 30.01 in 10.0 mi Variable 3.5 mph - N/A   Clear
2:53 AM 63.0 °F 48.9 °F 60% 29.99 in 10.0 mi SSW 4.6 mph - N/A   Clear
3:53 AM 63.0 °F 48.9 °F 60% 30.00 in 10.0 mi SSW 5.8 mph - N/A   Clear
4:53 AM 62.6 °F 50.0 °F 63% 30.02 in 10.0 mi SSW 5.8 mph - N/A   Clear
5:53 AM 62.1 °F 50.0 °F 65% 30.03 in 10.0 mi Variable 5.8 mph - N/A   Clear
6:53 AM 61.0 °F 50.0 °F 67% 30.04 in 10.0 mi SSW 6.9 mph - N/A   Clear
7:53 AM 61.0 °F 51.1 °F 70% 30.04 in 10.0 mi South 5.8 mph - N/A   Clear
8:53 AM 64.9 °F 52.0 °F 63% 30.05 in 10.0 mi SW 8.1 mph - N/A   Clear
9:53 AM 69.1 °F 53.1 °F 57% 30.06 in 10.0 mi SW 8.1 mph - N/A   Clear
10:53 AM 73.0 °F 55.0 °F 53% 30.05 in 10.0 mi SW 10.4 mph 17.3 mph N/A   Clear
11:53 AM 75.2 °F 57.2 °F 53% 30.05 in 10.0 mi SSW 10.4 mph 19.6 mph N/A   Mostly Cloudy
12:53 PM 79.0 °F 59.0 °F 50% 30.02 in 10.0 mi SW 10.4 mph 18.4 mph N/A   Clear
1:53 PM 78.1 °F 59.0 °F 52% 29.99 in 10.0 mi SSW 11.5 mph 20.7 mph N/A   Clear
2:53 PM 78.1 °F 59.0 °F 52% 29.97 in 10.0 mi South 9.2 mph 18.4 mph N/A   Mostly Cloudy
3:53 PM 78.1 °F 57.9 °F 50% 29.96 in 10.0 mi South 12.7 mph 18.4 mph N/A   Overcast
4:53 PM 77.0 °F 55.9 °F 48% 29.96 in 10.0 mi SSW 8.1 mph - N/A   Clear
5:53 PM 75.0 °F 55.0 °F 50% 29.96 in 10.0 mi SSW 4.6 mph - N/A   Clear
6:53 PM 72.0 °F 55.0 °F 55% 29.97 in 10.0 mi South 3.5 mph - N/A   Clear
7:53 PM 68.0 °F 55.9 °F 65% 29.98 in 10.0 mi South 5.8 mph - N/A   Clear
8:53 PM 69.1 °F 54.0 °F 58% 29.99 in 10.0 mi South 5.8 mph - N/A   Clear
9:53 PM 66.9 °F 53.1 °F 61% 30.00 in 10.0 mi South 5.8 mph - N/A   Clear
10:53 PM 66.9 °F 52.0 °F 59% 30.01 in 10.0 mi South 3.5 mph - N/A   Clear
11:53 PM 66.9 °F 52.0 °F 59% 30.01 in 10.0 mi Variable 3.5 mph - N/A   Clear